FW0385 Weather Reports


time (UTC)temp
C
wind
direction
speed
KPH
gust
KPH
rain 1hr
cm
rain 24hr
cm
rain mn
cm
humidity
%
barometer
mb
20260507023049 10 360 3.2 8.0 0.00 1.75 1.73 92 1011.4
20260507021549 10 28 0.0 0.0 0.00 1.75 1.73 92 1011.2
20260507020104 10 28 0.0 0.0 0.00 1.75 1.73 91 1011.1
20260507014554 11 28 0.0 0.0 0.00 1.75 1.73 90 1010.9
20260507013048 11 28 0.0 0.0 0.00 1.75 1.73 90 1010.6
20260507011544 11 28 0.0 0.0 0.00 1.75 1.73 89 1010.4
20260507010043 11 28 0.0 1.6 0.00 1.75 1.73 88 1010.5
20260507004545 11 28 1.6 3.2 0.00 1.75 1.73 87 1010.1
20260507003043 11 28 0.0 3.2 0.00 1.75 1.73 86 1010.0
20260507001545 11 28 1.6 6.4 0.00 1.75 1.73 85 1010.0
20260507000037 11 26 3.2 6.4 0.00 1.75 1.73 84 1009.9
20260506234538 11 304 0.0 0.0 0.00 1.75 1.73 88 1010.2
20260506233035 11 304 0.0 0.0 0.00 1.75 1.73 88 1010.4
20260506231545 11 304 0.0 0.0 0.00 1.75 1.73 87 1010.4
20260506230045 12 304 1.6 4.8 0.00 1.75 1.73 86 1009.8
20260506224531 11 304 0.0 1.6 0.00 1.75 1.73 86 1010.0
20260506223043 11 304 0.0 3.2 0.00 1.75 1.73 86 1009.8
20260506221527 11 304 0.0 3.2 0.00 1.75 1.73 86 1009.8
20260506220027 11 304 0.0 3.2 0.00 1.75 1.73 85 1009.5
20260506214526 11 304 1.6 6.4 0.00 1.75 1.73 85 1009.7
20260506213026 11 325 1.6 6.4 0.00 1.75 1.73 85 1009.5
20260506211532 11 338 0.0 6.4 0.00 1.75 1.73 87 1009.2
20260506210023 11 335 1.6 12.9 0.00 1.75 1.73 87 1009.0
20260506204519 11 24 3.2 16.1 0.00 1.75 1.73 88 1008.9
20260506203024 11 305 1.6 8.0 0.00 1.75 1.73 90 1008.7
20260506201529 11 313 1.6 12.9 0.00 1.75 1.73 90 1008.6
20260506200015 11 332 6.4 14.5 0.00 1.75 1.73 90 1008.6
20260506194515 12 279 6.4 16.1 0.00 1.75 1.73 93 1008.4
20260506193014 11 344 4.8 12.9 0.00 1.75 1.73 96 1008.4
20260506191514 11 360 4.8 14.5 0.00 1.75 1.73 97 1008.5
20260506190012 10 306 3.2 12.9 0.00 1.75 1.73 97 1008.5
20260506184512 10 32 6.4 14.5 0.00 1.75 1.73 97 1008.5
20260506183016 10 313 3.2 8.0 0.00 1.75 1.73 97 1008.7
20260506181510 10 18 4.8 12.9 0.00 1.75 1.73 97 1008.7
20260506180012 10 323 4.8 8.0 0.00 1.75 1.73 97 1008.6
20260506174511 10 346 3.2 8.0 0.00 1.75 1.73 97 1008.3
20260506173006 9 305 4.8 11.3 0.00 1.75 1.73 97 1008.4
20260506171506 9 322 3.2 17.7 0.00 1.75 1.73 97 1008.2
20260506170005 9 346 6.4 14.5 0.00 1.75 1.73 97 1008.2
20260506164506 10 310 6.4 12.9 0.00 1.75 1.73 97 1008.2
20260506163003 10 296 3.2 12.9 0.00 1.75 1.73 97 1008.1
20260506161601 10 355 4.8 14.5 0.00 1.75 1.73 97 1007.9
20260506160200 10 303 6.4 11.3 0.00 1.75 1.73 97 1007.7
20260506154604 9 344 1.6 9.7 0.00 1.75 1.73 97 1007.0
20260506153055 9 35 0.0 6.4 0.00 1.75 1.73 97 1006.8
20260506151553 8 22 4.8 14.5 0.00 1.75 1.73 97 1006.8
20260506150050 8 259 6.4 19.3 0.03 1.75 1.73 97 1006.7
20260506144559 9 332 11.3 24.1 0.08 1.75 1.73 97 1006.6
20260506143044 9 355 9.7 27.4 0.08 1.75 1.73 97 1006.0
20260506141540 10 360 9.7 24.1 0.10 1.75 1.73 97 1005.6
20260506140035 11 355 16.1 30.6 0.08 1.73 1.70 96 1005.3
20260506134534 13 302 9.7 17.7 0.03 1.68 1.65 97 1004.6
20260506133033 13 248 9.7 24.1 0.05 1.68 1.65 97 1004.3
20260506131535 13 232 6.4 22.5 0.05 1.65 1.63 97 1004.4
20260506130058 13 242 6.4 17.7 0.05 1.65 1.63 97 1004.2
20260506124549 13 184 8.0 19.3 0.08 1.65 1.63 97 1004.0
20260506123047 13 197 6.4 14.5 0.08 1.63 1.60 97 1004.0
20260506121551 13 254 6.4 16.1 0.08 1.60 1.57 97 1004.4
20260506120045 13 169 6.4 17.7 0.10 1.60 1.57 97 1004.3
20260506114544 13 190 11.3 20.9 0.08 1.57 1.55 97 1004.2
20260506113043 12 177 6.4 25.7 0.08 1.55 1.52 96 1004.0
20260506111541 12 167 9.7 20.9 0.13 1.52 1.50 96 1003.8
20260506110041 12 169 11.3 25.7 0.20 1.50 1.45 96 1003.6
20260506104540 12 174 12.9 19.3 0.30 1.50 1.45 96 1003.7
20260506103046 12 207 8.0 20.9 0.41 1.45 1.42 96 1003.6
20260506101534 12 192 8.0 24.1 0.46 1.40 1.37 96 1004.1
20260506100033 12 203 6.4 19.3 0.48 1.30 1.27 95 1004.0
20260506094534 12 190 11.3 17.7 0.46 1.19 1.17 95 1003.9
20260506093031 12 173 9.7 25.7 0.43 1.04 1.02 95 1004.1
20260506091532 12 183 11.3 19.3 0.48 0.94 0.91 94 1004.0
20260506090042 12 207 11.3 22.5 0.53 0.81 0.79 94 1004.0
20260506084526 13 186 12.9 22.5 0.48 0.71 0.71 93 1004.2
20260506083024 13 192 9.7 17.7 0.38 0.61 0.58 92 1004.4
20260506081523 13 188 6.4 19.3 0.25 0.46 0.43 91 1004.5
20260506073021 13 287 19.3 32.2 0.15 0.23 0.20 87 1004.7
20260506071517 13 205 11.3 24.1 0.18 0.20 0.18 87 1003.8
20260506061507 13 263 1.6 4.8 0.00 0.03 0.00 85 1004.7
20260506050110 15 221 0.0 0.0 0.00 0.03 0.00 78 1005.5
20260506044556 15 307 0.0 0.0 0.00 0.03 0.00 79 1005.6
20260506043104 14 307 0.0 0.0 0.03 0.03 0.00 80 1005.6
20260506041554 14 311 3.2 9.7 0.03 0.03 0.00 80 1005.7
20260506040101 15 284 6.4 14.5 0.03 0.03 0.00 80 1005.8
20260506034550 15 298 8.0 16.1 0.03 0.03 0.03 76 1005.8
20260506033048 16 279 6.4 24.1 0.00 0.00 0.00 72 1005.8
20260506031549 17 248 17.7 32.2 0.00 0.00 0.00 64 1005.8
20260506030047 18 269 12.9 20.9 0.00 0.00 0.00 57 1005.7
20260506024553 18 232 6.4 16.1 0.00 0.00 0.00 56 1005.7